Regional Weather Roundup
Issued by NWS Sterling, VA

Home | Current Version | Previous Version | Text Only | Print | Product List | Glossary On
Versions: 1 2 3 4 5 6 7 8 9 10 11 12 13 14 15 16 17 18 19 20 21 22 23 24 25 26 27 28 29 30 31 32 33 34 35 36 37 38 39 40 41 42 43 44 45 46 47 48 49 50
000
ASUS41 KLWX 032010
RWRLWX

REGIONAL WEATHER ROUNDUP
NATIONAL WEATHER SERVICE BALTIMORE MD/WASHINGTON DC
400 PM EDT SUN MAY 03 2015

Note: "FAIR" indicates few or no clouds below 12,000 feet
with no significant weather and/or obstructions to visibility.
 TC=TEMPERATURE CELSIUS

 * =Non NWS site. Station does not report precipitation (e.g. rain,
    snow, etc.), thunder, or fog.

DCZ001-MDZ009-015-VAZ040>042-051-053>054-032100-
WASHINGTON METRO

CITY           SKY/WX    TMP DP  RH WIND       PRES   REMARKS
WASHINGTON NAT MOSUNNY   83  45  26 CALM      30.09F
DULLES         PTSUNNY   80  42  25 NW10G16   30.09F
ANDREWS AFB    MOSUNNY   79  42  26 VRB5      30.08F
FT BELVOIR     MOSUNNY   80  44  28 SE7       30.09F
QUANTICO       CLOUDY    73  51  46 S9        30.10F
COLLEGE PARK*  MOSUNNY   81  37  21 NW8       30.09S
LEESBURG*      PTSUNNY   79  45  29 W5        30.11S
MANASSAS*      MOSUNNY   81  43  26 W7        30.10F
GAITHERSBURG*  SUNNY     79  43  27 SW7G16    30.13F

$$

MDZ006>007-011-014-032100-
BALTIMORE METRO

CITY           SKY/WX    TMP DP  RH WIND       PRES   REMARKS
BWI AIRPORT    MOSUNNY   80  40  23 W9G22     30.07F
MD SCIENCE CTR   N/A     81  38  21 MISG      30.08S
MARTIN STATE   MOSUNNY   75  48  38 SE8       30.10F
ANNAPOLIS      FAIR      73  45  36 SE13      30.08F
FORT MEADE*    SUNNY     79  41  25 CALM      30.11S

$$

MDZ012-015-019>023-032100-
MARYLAND EASTERN SHORE

CITY           SKY/WX    TMP DP  RH WIND       PRES   REMARKS
OCEAN CITY     SUNNY     63  50  62 SE7       30.12S
SALISBURY      PTSUNNY   79  38  22 VRB3      30.09F
BAY BRIDGE AP*   N/A    N/A N/A N/A SE8       30.09F
CAMBRIDGE*     SUNNY     79  34  19 N5        30.10S
EASTON*        MOSUNNY   81  45  28 SW7       30.13F

$$

MDZ017>025-032100-
SOUTHERN MARYLAND

CITY           SKY/WX    TMP DP  RH WIND       PRES   REMARKS
PATUXENT RIVER MOSUNNY   76  42  29 SE8       30.10F
ST INIGOES     SUNNY     79  39  23 SW6       30.10F
LEONARDTOWN*   PTSUNNY   77  37  24 SE6       30.12F

$$

MDZ003>005-032100-
NORTH CENTRAL MARYLAND

CITY           SKY/WX    TMP DP  RH WIND       PRES   REMARKS
FREDERICK*     SUNNY     81  34  18 W9        30.11F
HAGERSTOWN APT MOSUNNY   79  38  22 SW7       30.08F
WESTMINSTER*   MOSUNNY   79  34  19 NW5       30.10S

$$

MDZ501>502-032100-
WESTERN MARYLAND

CITY           SKY/WX    TMP DP  RH WIND       PRES   REMARKS
OAKLAND*       CLOUDY    68  37  32 W9        30.18F
CUMBERLAND*    MOSUNNY   79  39  24 CALM      30.12F

$$

VAZ025>031-032100-
SHENANDOAH VALLEY

CITY           SKY/WX    TMP DP  RH WIND       PRES   REMARKS
WINCHESTER*    CLOUDY    77  30  18 SW5       30.11S
FRONT ROYAL*   MOCLDY    73  43  33 CALM      30.10F
LURAY*         FAIR      77  43  29 SW5       30.12F
NEW MARKET*    MOCLDY    77  45  31 SW7       30.10F
STAUNTON*      MOSUNNY   76  38  24 CALM      30.15F
WAYNESBORO*    FAIR      73  33  23 N3        30.14F

$$

WVZ021-048>050-054>055-032100-
EASTERN WEST VIRGINIA PANHANDLE

CITY           SKY/WX    TMP DP  RH WIND       PRES   REMARKS
MARTINSBURG    PTSUNNY   75  44  33 CALM      30.10F
PETERSBURG*    MOSUNNY   77  38  24 SE5       30.12S

$$

VAZ036>039-050-032100-
CENTRAL FOOTHILLS

CITY           SKY/WX    TMP DP  RH WIND       PRES   REMARKS
CHARLOTTESVILL MOSUNNY   78  39  24 CALM      30.12F
CULPEPER*      NOT AVBL
ORANGE*        MOSUNNY   79  43  27 CALM      30.13F
GORDONSVILLE*  MOCLDY    76  40  27 CALM      30.11F
WARRENTON*     PTSUNNY   80  46  29 NW6       30.10F

$$

VAZ055>057-032100-
NORTH AND CENTRAL PIEDMONT

CITY           SKY/WX    TMP DP  RH WIND       PRES   REMARKS
FREDERICKSBRG* MOSUNNY   82  42  24 CALM      30.10F
STAFFORD*      MOSUNNY   79  36  21 SW5       30.14F

$$

NCZ024-NYZ072-PAZ021-071-VAZ022-071-032100-
OTHER REGIONAL OBSERVATIONS

CITY           SKY/WX    TMP DP  RH WIND       PRES   REMARKS
NEW YORK CITY  SUNNY     77  36  22 MISG      30.08F
PHILADELPHIA   MOSUNNY   79  36  21 W7        30.07F
PITTSBURGH     PTSUNNY   77  42  28 NW9       30.10F
ROANOKE        CLOUDY    74  38  27 CALM      30.16F
RICHMOND       MOSUNNY   82  40  22 CALM      30.11F
RALEIGH        PTSUNNY   76  42  29 CALM      30.16F

$$

ANZ530>537-032100-
MARINE OBSERVATIONS

STATION/POSITION TIME  TEMP    WIND        PRES
                       AIR SEA DIR/SP/G
                 (UTC) (F)     (DEG/KT/KT) (MB)
THOMAS PT LIGHT  2000   68 57  180/ 10/ 10 1019.5F
BALT KEY BRIDGE  1900   71     120/  9/ 10 1018.7F
COVE POINT       1900   72      90/  5/  6 1020.2F
LEWISETTA        1900   67 63              1019.6F
SOLOMONS ISLAND  1906      61                N/A
PINEY POINT      1900          320/  6/  7   N/A

$$




USA.gov is the U.S. government's official web portal to all federal, state and local government web resources and services.